TimeEST,TemperatureF,Dew PointF,Humidity,Sea Level PressureIn,VisibilityMPH,Wind Direction,Wind SpeedMPH,Gust SpeedMPH,PrecipitationIn,Events,Conditions,WindDirDegrees,DateUTC
12:55 AM,58.3,49.6,73,29.85,10.0,West,18.4,25.3,N/A,,Clear,260,2013-02-12 05:55:00
1:55 AM,56.8,46.6,69,29.86,10.0,West,16.1,23.0,N/A,,Clear,260,2013-02-12 06:55:00
2:55 AM,55.9,44.8,66,29.87,10.0,West,12.7,-,N/A,,Clear,260,2013-02-12 07:55:00
3:55 AM,54.5,43.2,66,29.90,10.0,West,10.4,-,N/A,,Clear,260,2013-02-12 08:55:00
4:55 AM,50.2,41.9,73,29.92,10.0,West,9.2,-,N/A,,Clear,260,2013-02-12 09:55:00
5:55 AM,48.7,39.9,72,29.94,10.0,West,9.2,-,N/A,,Clear,260,2013-02-12 10:55:00
6:55 AM,47.3,37.6,69,29.98,10.0,West,6.9,-,N/A,,Clear,270,2013-02-12 11:55:00
7:55 AM,47.8,38.3,70,29.99,10.0,West,5.8,-,N/A,,Scattered Clouds,270,2013-02-12 12:55:00
8:55 AM,51.3,36.0,56,30.01,10.0,West,8.1,-,N/A,,Scattered Clouds,270,2013-02-12 13:55:00
9:55 AM,51.6,32.9,49,30.03,10.0,West,9.2,-,N/A,,Mostly Cloudy,270,2013-02-12 14:55:00
10:55 AM,54.1,31.8,43,30.03,10.0,West,9.2,-,N/A,,Partly Cloudy,270,2013-02-12 15:55:00
11:29 AM,55.4,32.0,41,30.03,10.0,West,11.5,-,N/A,Rain,Light Rain,260,2013-02-12 16:29:00
11:38 AM,55.4,30.2,38,30.02,10.0,West,9.2,-,N/A,,Scattered Clouds,270,2013-02-12 16:38:00
11:55 AM,55.9,31.6,40,30.03,10.0,WNW,9.2,-,0.00,,Partly Cloudy,290,2013-02-12 16:55:00
12:55 PM,55.8,30.7,39,30.01,10.0,West,10.4,-,N/A,,Scattered Clouds,260,2013-02-12 17:55:00
1:55 PM,58.5,31.8,37,29.98,10.0,SW,4.6,-,N/A,,Partly Cloudy,230,2013-02-12 18:55:00
2:55 PM,57.9,30.9,36,29.92,10.0,South,6.9,-,N/A,,Clear,190,2013-02-12 19:55:00
3:55 PM,56.8,31.8,39,29.98,10.0,West,10.4,-,N/A,,Clear,260,2013-02-12 20:55:00
4:55 PM,55.9,31.6,40,29.97,10.0,WSW,8.1,-,N/A,,Clear,240,2013-02-12 21:55:00
5:55 PM,54.3,31.6,42,29.98,10.0,WSW,9.2,-,N/A,,Clear,240,2013-02-12 22:55:00
6:03 PM,53.6,32.0,44,29.97,10.0,SW,6.9,-,N/A,,Mostly Cloudy,230,2013-02-12 23:03:00
6:55 PM,53.4,32.7,45,29.99,10.0,SW,5.8,-,N/A,,Clear,220,2013-02-12 23:55:00
7:55 PM,51.6,33.3,50,29.98,10.0,South,4.6,-,N/A,,Partly Cloudy,180,2013-02-13 00:55:00
8:55 PM,51.4,35.6,55,29.96,10.0,SE,6.9,-,N/A,,Clear,140,2013-02-13 01:55:00
9:55 PM,49.1,37.9,65,29.95,10.0,SSE,6.9,-,N/A,,Clear,160,2013-02-13 02:55:00
10:55 PM,49.5,36.5,61,29.99,10.0,South,8.1,-,N/A,,Clear,180,2013-02-13 03:55:00
11:55 PM,48.7,38.5,68,29.97,10.0,South,6.9,-,N/A,,Mostly Cloudy,190,2013-02-13 04:55:00